Location: *
(50.9167°S, 179.4000°W)
Time: 18:24:38
(UTC+00:00)

CZ-2C R/B - Pass Details

Date: 25 June 2024
Orbit: 665 x 779 km, 98.4° (Epoch: 18 July)

Event Time Altitude Azimuth Distance (km) Brightness Sun altitude
Rises 04:42:26 0° 171° (S) 3,309 5.4 -6.6°
Reaches altitude 10° 04:44:56 10° 179° (S) 2,370 4.8 -6.9°
Maximum altitude 04:49:40 36° 243° (WSW) 1,235 4.0 -7.6°
Drops below altitude 10° 04:54:17 10° 308° (NW) 2,308 6.6 -8.2°
Sets 04:56:42 0° 316° (NW) 3,210 7.3 -8.6°
